Time,TemperatureF,DewpointF,PressureIn,WindDirection,WindDirectionDegrees,WindSpeedMPH,WindSpeedGustMPH,Humidity,HourlyPrecipIn,Conditions,Clouds,dailyrainin,SoftwareType,DateUTC
2013-05-13 00:03:00,54.0,24.0,-100.00,WNW,299,5.0,-999.0,32,-99.99,,,-99.99,,2013-05-13 04:03:00,
2013-05-13 00:12:00,54.0,24.0,-100.00,WNW,299,5.0,-999.0,32,-99.99,,,-99.99,,2013-05-13 04:12:00,
2013-05-13 00:23:00,53.0,24.0,-100.00,WNW,289,3.0,-999.0,32,-99.99,,,-99.99,,2013-05-13 04:23:00,
2013-05-13 00:33:00,53.0,25.0,-100.00,NW,310,5.0,-999.0,33,-99.99,,,-99.99,,2013-05-13 04:33:00,
2013-05-13 00:42:00,53.0,25.0,-100.00,NW,310,5.0,-999.0,33,-99.99,,,-99.99,,2013-05-13 04:42:00,
2013-05-13 00:53:00,53.0,25.0,-100.00,WNW,294,4.0,-999.0,33,-99.99,,,-99.99,,2013-05-13 04:53:00,
2013-05-13 01:02:00,52.0,25.0,-100.00,West,278,4.0,-999.0,34,-99.99,,,-99.99,,2013-05-13 05:02:00,
2013-05-13 01:12:00,52.0,25.0,-100.00,West,278,4.0,-999.0,34,-99.99,,,-99.99,,2013-05-13 05:12:00,
2013-05-13 01:22:00,52.0,25.0,-100.00,West,275,4.0,-999.0,35,-99.99,,,-99.99,,2013-05-13 05:22:00,
2013-05-13 01:32:00,52.0,26.0,-100.00,West,276,4.0,-999.0,36,-99.99,,,-99.99,,2013-05-13 05:32:00,
2013-05-13 01:42:00,52.0,26.0,-100.00,West,276,4.0,-999.0,36,-99.99,,,-99.99,,2013-05-13 05:42:00,
2013-05-13 01:52:00,51.0,26.0,-100.00,WNW,288,5.0,-999.0,37,-99.99,,,-99.99,,2013-05-13 05:52:00,
2013-05-13 02:01:00,51.0,27.0,-100.00,West,271,4.0,-999.0,38,-99.99,,,-99.99,,2013-05-13 06:01:00,
2013-05-13 02:12:00,51.0,27.0,-100.00,West,271,4.0,-999.0,38,-99.99,,,-99.99,,2013-05-13 06:12:00,
2013-05-13 02:21:00,50.0,27.0,-100.00,WNW,290,5.0,-999.0,39,-99.99,,,-99.99,,2013-05-13 06:21:00,
2013-05-13 02:32:00,50.0,27.0,-100.00,WNW,291,4.0,-999.0,40,-99.99,,,-99.99,,2013-05-13 06:32:00,
2013-05-13 02:42:00,50.0,27.0,-100.00,WNW,291,4.0,-999.0,40,-99.99,,,-99.99,,2013-05-13 06:42:00,
2013-05-13 02:52:00,50.0,27.0,-100.00,WNW,288,4.0,-999.0,40,-99.99,,,-99.99,,2013-05-13 06:52:00,
2013-05-13 03:01:00,50.0,28.0,-100.00,WSW,254,2.0,-999.0,41,-99.99,,,-99.99,,2013-05-13 07:01:00,
2013-05-13 03:11:00,50.0,28.0,-100.00,WSW,254,2.0,-999.0,41,-99.99,,,-99.99,,2013-05-13 07:11:00,
2013-05-13 03:22:00,50.0,27.0,-100.00,WSW,243,4.0,-999.0,41,-99.99,,,-99.99,,2013-05-13 07:22:00,
2013-05-13 03:32:00,50.0,27.0,-100.00,WSW,246,5.0,-999.0,40,-99.99,,,-99.99,,2013-05-13 07:32:00,
2013-05-13 03:42:00,50.0,27.0,-100.00,WSW,246,5.0,-999.0,40,-99.99,,,-99.99,,2013-05-13 07:42:00,
2013-05-13 03:52:00,50.0,28.0,-100.00,West,273,5.0,-999.0,41,-99.99,,,-99.99,,2013-05-13 07:52:00,
2013-05-13 04:02:00,50.0,28.0,-100.00,West,272,6.0,-999.0,42,-99.99,,,-99.99,,2013-05-13 08:02:00,
2013-05-13 04:11:00,50.0,28.0,-100.00,West,272,6.0,-999.0,42,-99.99,,,-99.99,,2013-05-13 08:11:00,
2013-05-13 04:21:00,50.0,28.0,-100.00,West,274,3.0,-999.0,42,-99.99,,,-99.99,,2013-05-13 08:21:00,
2013-05-13 04:32:00,49.0,29.0,-100.00,West,269,2.0,-999.0,44,-99.99,,,-99.99,,2013-05-13 08:32:00,
2013-05-13 04:42:00,49.0,29.0,-100.00,West,269,2.0,-999.0,44,-99.99,,,-99.99,,2013-05-13 08:42:00,
2013-05-13 04:52:00,49.0,28.0,-100.00,West,276,3.0,-999.0,43,-99.99,,,-99.99,,2013-05-13 08:52:00,
2013-05-13 05:01:00,49.0,28.0,-100.00,WNW,298,5.0,-999.0,44,-99.99,,,-99.99,,2013-05-13 09:01:00,
2013-05-13 05:11:00,49.0,28.0,-100.00,WNW,298,5.0,-999.0,44,-99.99,,,-99.99,,2013-05-13 09:11:00,
2013-05-13 05:21:00,49.0,28.0,-100.00,West,281,4.0,-999.0,45,-99.99,,,-99.99,,2013-05-13 09:21:00,
2013-05-13 05:33:00,49.0,28.0,-100.00,West,270,7.0,-999.0,43,-99.99,,,-99.99,,2013-05-13 09:33:00,
2013-05-13 05:42:00,49.0,28.0,-100.00,West,270,7.0,-999.0,43,-99.99,,,-99.99,,2013-05-13 09:42:00,
2013-05-13 05:52:00,49.0,28.0,-100.00,West,273,6.0,-999.0,43,-99.99,,,-99.99,,2013-05-13 09:52:00,
2013-05-13 06:03:00,48.0,28.0,-100.00,West,269,6.0,-999.0,45,-99.99,,,-99.99,,2013-05-13 10:03:00,
2013-05-13 06:12:00,48.0,28.0,-100.00,West,269,6.0,-999.0,45,-99.99,,,-99.99,,2013-05-13 10:12:00,
2013-05-13 06:22:00,48.0,28.0,-100.00,West,272,6.0,-999.0,46,-99.99,,,-99.99,,2013-05-13 10:22:00,
2013-05-13 06:33:00,48.0,28.0,-100.00,West,275,8.0,-999.0,45,-99.99,,,-99.99,,2013-05-13 10:33:00,
2013-05-13 06:42:00,48.0,28.0,-100.00,West,275,8.0,-999.0,45,-99.99,,,-99.99,,2013-05-13 10:42:00,
2013-05-13 06:52:00,48.0,28.0,-100.00,West,279,6.0,-999.0,46,-99.99,,,-99.99,,2013-05-13 10:52:00,
2013-05-13 07:02:00,48.0,28.0,-100.00,West,267,4.0,-999.0,45,-99.99,,,-99.99,,2013-05-13 11:02:00,
2013-05-13 07:12:00,48.0,28.0,-100.00,West,267,4.0,-999.0,45,-99.99,,,-99.99,,2013-05-13 11:12:00,
2013-05-13 07:22:00,48.0,28.0,-100.00,WSW,257,5.0,-999.0,44,-99.99,,,-99.99,,2013-05-13 11:22:00,
2013-05-13 07:32:00,49.0,27.0,-100.00,WSW,255,6.0,-999.0,43,-99.99,,,-99.99,,2013-05-13 11:32:00,
2013-05-13 07:42:00,49.0,27.0,-100.00,WSW,255,6.0,-999.0,43,-99.99,,,-99.99,,2013-05-13 11:42:00,
2013-05-13 07:52:00,49.0,27.0,-100.00,WSW,255,6.0,-999.0,41,-99.99,,,-99.99,,2013-05-13 11:52:00,
2013-05-13 08:02:00,50.0,25.0,-100.00,WSW,254,7.0,-999.0,38,-99.99,,,-99.99,,2013-05-13 12:02:00,
2013-05-13 08:11:00,50.0,25.0,-100.00,WSW,254,7.0,-999.0,38,-99.99,,,-99.99,,2013-05-13 12:11:00,
2013-05-13 08:21:00,50.0,25.0,-100.00,West,262,8.0,-999.0,38,-99.99,,,-99.99,,2013-05-13 12:21:00,
2013-05-13 08:32:00,50.0,26.0,-100.00,WSW,253,8.0,-999.0,39,-99.99,,,-99.99,,2013-05-13 12:32:00,
2013-05-13 08:42:00,50.0,26.0,-100.00,WSW,253,8.0,-999.0,39,-99.99,,,-99.99,,2013-05-13 12:42:00,
2013-05-13 08:52:00,50.0,26.0,-100.00,WSW,256,7.0,-999.0,38,-99.99,,,-99.99,,2013-05-13 12:52:00,
2013-05-13 09:01:00,51.0,26.0,-100.00,WNW,287,9.0,-999.0,37,-99.99,,,-99.99,,2013-05-13 13:01:00,
2013-05-13 09:11:00,51.0,26.0,-100.00,WNW,287,9.0,-999.0,37,-99.99,,,-99.99,,2013-05-13 13:11:00,
2013-05-13 09:21:00,51.0,24.0,-100.00,West,273,10.0,-999.0,35,-99.99,,,-99.99,,2013-05-13 13:21:00,
2013-05-13 09:31:00,51.0,24.0,-100.00,West,264,12.0,-999.0,34,-99.99,,,-99.99,,2013-05-13 13:31:00,
2013-05-13 09:42:00,51.0,24.0,-100.00,West,264,12.0,-999.0,34,-99.99,,,-99.99,,2013-05-13 13:42:00,
2013-05-13 09:52:00,52.0,24.0,-100.00,West,271,12.0,-999.0,34,-99.99,,,-99.99,,2013-05-13 13:52:00,
2013-05-13 10:02:00,52.0,23.0,-100.00,WNW,295,13.0,-999.0,32,-99.99,,,-99.99,,2013-05-13 14:02:00,
2013-05-13 10:11:00,52.0,23.0,-100.00,WNW,295,13.0,-999.0,32,-99.99,,,-99.99,,2013-05-13 14:11:00,
2013-05-13 10:22:00,53.0,24.0,-100.00,West,276,11.0,-999.0,32,-99.99,,,-99.99,,2013-05-13 14:22:00,
2013-05-13 10:32:00,53.0,23.0,-100.00,West,269,14.0,-999.0,30,-99.99,,,-99.99,,2013-05-13 14:32:00,
2013-05-13 10:41:00,53.0,23.0,-100.00,West,269,14.0,-999.0,30,-99.99,,,-99.99,,2013-05-13 14:41:00,
2013-05-13 10:52:00,53.0,22.0,-100.00,WNW,285,12.0,-999.0,29,-99.99,,,-99.99,,2013-05-13 14:52:00,
2013-05-13 11:01:00,53.0,22.0,-100.00,WNW,290,13.0,-999.0,28,-99.99,,,-99.99,,2013-05-13 15:01:00,
2013-05-13 11:11:00,53.0,22.0,-100.00,WNW,290,13.0,-999.0,28,-99.99,,,-99.99,,2013-05-13 15:11:00,
2013-05-13 11:21:00,53.0,20.0,-100.00,WNW,284,18.0,-999.0,27,-99.99,,,-99.99,,2013-05-13 15:21:00,
2013-05-13 11:32:00,53.0,19.0,-100.00,WNW,298,16.0,-999.0,26,-99.99,,,-99.99,,2013-05-13 15:32:00,
2013-05-13 11:42:00,53.0,19.0,-100.00,WNW,298,16.0,-999.0,26,-99.99,,,-99.99,,2013-05-13 15:42:00,
2013-05-13 11:53:00,54.0,20.0,-100.00,WNW,285,16.0,-999.0,26,-99.99,,,-99.99,,2013-05-13 15:53:00,
2013-05-13 12:03:00,54.0,18.0,-100.00,WNW,297,15.0,-999.0,24,-99.99,,,-99.99,,2013-05-13 16:03:00,
2013-05-13 12:12:00,54.0,18.0,-100.00,WNW,297,15.0,-999.0,24,-99.99,,,-99.99,,2013-05-13 16:12:00,
2013-05-13 12:21:00,54.0,20.0,-100.00,West,280,13.0,-999.0,26,-99.99,,,-99.99,,2013-05-13 16:21:00,
2013-05-13 12:33:00,54.0,20.0,-100.00,West,280,13.0,-999.0,26,-99.99,,,-99.99,,2013-05-13 16:33:00,
2013-05-13 12:42:00,54.0,21.0,-100.00,WNW,283,13.0,-999.0,26,-99.99,,,-99.99,,2013-05-13 16:42:00,
2013-05-13 12:53:00,54.0,20.0,-100.00,WNW,292,15.0,-999.0,26,-99.99,,,-99.99,,2013-05-13 16:53:00,
2013-05-13 13:02:00,54.0,20.0,-100.00,WNW,284,13.0,-999.0,26,-99.99,,,-99.99,,2013-05-13 17:02:00,
2013-05-13 13:12:00,54.0,20.0,-100.00,WNW,284,13.0,-999.0,26,-99.99,,,-99.99,,2013-05-13 17:12:00,
2013-05-13 13:21:00,55.0,19.0,-100.00,WNW,285,13.0,-999.0,24,-99.99,,,-99.99,,2013-05-13 17:21:00,
2013-05-13 13:32:00,55.0,19.0,-100.00,WNW,288,13.0,-999.0,24,-99.99,,,-99.99,,2013-05-13 17:32:00,
2013-05-13 13:42:00,55.0,19.0,-100.00,WNW,288,13.0,-999.0,24,-99.99,,,-99.99,,2013-05-13 17:42:00,
2013-05-13 13:54:00,56.0,19.0,-100.00,WNW,285,13.0,-999.0,24,-99.99,,,-99.99,,2013-05-13 17:54:00,
2013-05-13 14:03:00,55.0,20.0,-100.00,WNW,286,11.0,-999.0,24,-99.99,,,-99.99,,2013-05-13 18:03:00,
2013-05-13 14:13:00,55.0,20.0,-100.00,WNW,286,11.0,-999.0,24,-99.99,,,-99.99,,2013-05-13 18:13:00,
2013-05-13 14:23:00,55.0,20.0,-100.00,NW,312,11.0,-999.0,25,-99.99,,,-99.99,,2013-05-13 18:23:00,
2013-05-13 14:32:00,55.0,20.0,-100.00,NW,305,11.0,-999.0,25,-99.99,,,-99.99,,2013-05-13 18:32:00,
2013-05-13 14:42:00,55.0,20.0,-100.00,NW,305,11.0,-999.0,25,-99.99,,,-99.99,,2013-05-13 18:42:00,
2013-05-13 14:52:00,55.0,20.0,-100.00,WNW,286,10.0,-999.0,24,-99.99,,,-99.99,,2013-05-13 18:52:00,
2013-05-13 15:01:00,56.0,19.0,-100.00,WNW,300,8.0,-999.0,23,-99.99,,,-99.99,,2013-05-13 19:01:00,
2013-05-13 15:12:00,56.0,19.0,-100.00,WNW,300,8.0,-999.0,23,-99.99,,,-99.99,,2013-05-13 19:12:00,
2013-05-13 15:22:00,56.0,18.0,-100.00,WNW,289,11.0,-999.0,21,-99.99,,,-99.99,,2013-05-13 19:22:00,
2013-05-13 15:32:00,56.0,19.0,-100.00,NW,319,11.0,-999.0,22,-99.99,,,-99.99,,2013-05-13 19:32:00,
2013-05-13 15:44:00,56.0,19.0,-100.00,NW,319,11.0,-999.0,22,-99.99,,,-99.99,,2013-05-13 19:44:00,
2013-05-13 15:53:00,57.0,18.0,-100.00,NW,308,12.0,-999.0,22,-99.99,,,-99.99,,2013-05-13 19:53:00,
2013-05-13 16:02:00,57.0,17.0,-100.00,WNW,302,13.0,-999.0,20,-99.99,,,-99.99,,2013-05-13 20:02:00,
2013-05-13 16:11:00,57.0,17.0,-100.00,WNW,302,13.0,-999.0,20,-99.99,,,-99.99,,2013-05-13 20:11:00,
2013-05-13 16:23:00,57.0,18.0,-100.00,NW,317,13.0,-999.0,20,-99.99,,,-99.99,,2013-05-13 20:23:00,
2013-05-13 16:34:00,58.0,18.0,-100.00,NW,306,12.0,-999.0,21,-99.99,,,-99.99,,2013-05-13 20:34:00,
2013-05-13 16:44:00,58.0,18.0,-100.00,NW,306,12.0,-999.0,21,-99.99,,,-99.99,,2013-05-13 20:44:00,
2013-05-13 16:53:00,58.0,17.0,-100.00,NW,313,16.0,-999.0,20,-99.99,,,-99.99,,2013-05-13 20:53:00,
2013-05-13 17:03:00,57.0,17.0,-100.00,WNW,296,14.0,-999.0,20,-99.99,,,-99.99,,2013-05-13 21:03:00,
2013-05-13 17:14:00,57.0,17.0,-100.00,WNW,296,14.0,-999.0,20,-99.99,,,-99.99,,2013-05-13 21:14:00,
2013-05-13 17:23:00,57.0,17.0,-100.00,WNW,293,15.0,-999.0,20,-99.99,,,-99.99,,2013-05-13 21:23:00,
2013-05-13 17:33:00,57.0,18.0,-100.00,NNW,329,13.0,-999.0,21,-99.99,,,-99.99,,2013-05-13 21:33:00,
2013-05-13 17:43:00,57.0,18.0,-100.00,NNW,329,13.0,-999.0,21,-99.99,,,-99.99,,2013-05-13 21:43:00,
2013-05-13 17:53:00,57.0,18.0,-100.00,NW,313,13.0,-999.0,21,-99.99,,,-99.99,,2013-05-13 21:53:00,
2013-05-13 18:02:00,57.0,18.0,-100.00,NW,308,14.0,-999.0,21,-99.99,,,-99.99,,2013-05-13 22:02:00,
2013-05-13 18:12:00,57.0,18.0,-100.00,NW,308,14.0,-999.0,21,-99.99,,,-99.99,,2013-05-13 22:12:00,
2013-05-13 18:23:00,57.0,18.0,-100.00,WNW,298,16.0,-999.0,21,-99.99,,,-99.99,,2013-05-13 22:23:00,
2013-05-13 18:32:00,57.0,19.0,-100.00,NW,316,11.0,-999.0,22,-99.99,,,-99.99,,2013-05-13 22:32:00,
2013-05-13 18:43:00,57.0,19.0,-100.00,NW,316,11.0,-999.0,22,-99.99,,,-99.99,,2013-05-13 22:43:00,
2013-05-13 18:52:00,57.0,18.0,-100.00,NW,307,13.0,-999.0,21,-99.99,,,-99.99,,2013-05-13 22:52:00,
2013-05-13 19:02:00,57.0,19.0,-100.00,NW,326,12.0,-999.0,22,-99.99,,,-99.99,,2013-05-13 23:02:00,
2013-05-13 19:13:00,57.0,19.0,-100.00,NW,326,12.0,-999.0,22,-99.99,,,-99.99,,2013-05-13 23:13:00,
2013-05-13 19:23:00,56.0,18.0,-100.00,NNW,330,13.0,-999.0,22,-99.99,,,-99.99,,2013-05-13 23:23:00,
2013-05-13 19:34:00,56.0,19.0,-100.00,NW,315,11.0,-999.0,22,-99.99,,,-99.99,,2013-05-13 23:34:00,
2013-05-13 19:42:00,56.0,19.0,-100.00,NW,315,11.0,-999.0,22,-99.99,,,-99.99,,2013-05-13 23:42:00,
2013-05-13 19:54:00,56.0,19.0,-100.00,NW,320,11.0,-999.0,23,-99.99,,,-99.99,,2013-05-13 23:54:00,
2013-05-13 20:02:00,56.0,19.0,-100.00,NW,322,11.0,-999.0,23,-99.99,,,-99.99,,2013-05-14 00:02:00,
2013-05-13 20:13:00,56.0,19.0,-100.00,NW,322,11.0,-999.0,23,-99.99,,,-99.99,,2013-05-14 00:13:00,
2013-05-13 20:22:00,55.0,19.0,-100.00,NW,322,8.0,-999.0,24,-99.99,,,-99.99,,2013-05-14 00:22:00,
2013-05-13 20:32:00,55.0,20.0,-100.00,NNW,336,8.0,-999.0,25,-99.99,,,-99.99,,2013-05-14 00:32:00,
2013-05-13 20:42:00,55.0,20.0,-100.00,NNW,336,8.0,-999.0,25,-99.99,,,-99.99,,2013-05-14 00:42:00,
2013-05-13 20:52:00,54.0,19.0,-100.00,NNW,336,8.0,-999.0,25,-99.99,,,-99.99,,2013-05-14 00:52:00,
2013-05-13 21:02:00,54.0,20.0,-100.00,NNW,337,7.0,-999.0,25,-99.99,,,-99.99,,2013-05-14 01:02:00,
2013-05-13 21:11:00,54.0,20.0,-100.00,NNW,337,7.0,-999.0,25,-99.99,,,-99.99,,2013-05-14 01:11:00,
2013-05-13 21:21:00,54.0,20.0,-100.00,NNW,336,6.0,-999.0,26,-99.99,,,-99.99,,2013-05-14 01:21:00,
2013-05-13 21:32:00,53.0,20.0,-100.00,NNW,346,6.0,-999.0,27,-99.99,,,-99.99,,2013-05-14 01:32:00,
2013-05-13 21:43:00,53.0,20.0,-100.00,NNW,346,6.0,-999.0,27,-99.99,,,-99.99,,2013-05-14 01:43:00,
2013-05-13 21:53:00,53.0,21.0,-100.00,North,351,7.0,-999.0,28,-99.99,,,-99.99,,2013-05-14 01:53:00,
2013-05-13 22:02:00,53.0,21.0,-100.00,North,350,7.0,-999.0,29,-99.99,,,-99.99,,2013-05-14 02:02:00,
2013-05-13 22:12:00,53.0,21.0,-100.00,North,350,7.0,-999.0,29,-99.99,,,-99.99,,2013-05-14 02:12:00,
2013-05-13 22:22:00,52.0,22.0,-100.00,North,351,6.0,-999.0,30,-99.99,,,-99.99,,2013-05-14 02:22:00,
2013-05-13 22:32:00,52.0,22.0,-100.00,North,351,7.0,-999.0,31,-99.99,,,-99.99,,2013-05-14 02:32:00,
2013-05-13 22:42:00,52.0,22.0,-100.00,North,351,7.0,-999.0,31,-99.99,,,-99.99,,2013-05-14 02:42:00,
2013-05-13 22:52:00,51.0,22.0,-100.00,North,353,6.0,-999.0,31,-99.99,,,-99.99,,2013-05-14 02:52:00,
2013-05-13 23:01:00,51.0,23.0,-100.00,North,350,5.0,-999.0,33,-99.99,,,-99.99,,2013-05-14 03:01:00,
2013-05-13 23:11:00,51.0,23.0,-100.00,North,350,5.0,-999.0,33,-99.99,,,-99.99,,2013-05-14 03:11:00,
2013-05-13 23:21:00,51.0,23.0,-100.00,NNW,348,5.0,-999.0,33,-99.99,,,-99.99,,2013-05-14 03:21:00,
2013-05-13 23:33:00,51.0,23.0,-100.00,NNW,348,5.0,-999.0,33,-99.99,,,-99.99,,2013-05-14 03:33:00,
2013-05-13 23:42:00,51.0,23.0,-100.00,NNW,348,5.0,-999.0,33,-99.99,,,-99.99,,2013-05-14 03:42:00,
2013-05-13 23:53:00,50.0,24.0,-100.00,NNW,343,4.0,-999.0,35,-99.99,,,-99.99,,2013-05-14 03:53:00,